Track STARLINK-3637 now! 10-day predictions STARLINK-3637 is classified as:
1 51799U 22017AH 22230.91667824 .00000111 00000-0 25052-4 0 9996 2 51799 53.2175 59.5337 0001859 57.0682 280.8972 15.08836867 27848